| time (UTC) | temp F | wind direction | speed MPH | gust MPH | rain 1hr in | rain 24hr in | rain mn in | humidity % | barometer mb |
| 20260506190022 | 86 | 167 | 7.0 | 13.0 | 0.00 | 0.00 | 0.00 | 57 | 1016.1 |
| 20260506184520 | 86 | 277 | 7.0 | 15.0 | 0.00 | 0.00 | 0.00 | 56 | 1016.4 |
| 20260506183018 | 85 | 259 | 4.0 | 10.0 | 0.00 | 0.00 | 0.00 | 57 | 1016.7 |
| 20260506181516 | 85 | 234 | 7.0 | 18.0 | 0.00 | 0.00 | 0.00 | 60 | 1016.9 |
| 20260506180014 | 84 | 231 | 9.0 | 16.0 | 0.00 | 0.00 | 0.00 | 58 | 1017.2 |
| 20260506174512 | 84 | 225 | 10.0 | 18.0 | 0.00 | 0.00 | 0.00 | 60 | 1017.5 |
| 20260506173012 | 83 | 259 | 9.0 | 18.0 | 0.00 | 0.00 | 0.00 | 61 | 1017.6 |
| 20260506171511 | 83 | 236 | 8.0 | 19.0 | 0.00 | 0.00 | 0.00 | 61 | 1017.9 |
| 20260506170008 | 83 | 247 | 6.0 | 16.0 | 0.00 | 0.00 | 0.00 | 62 | 1018.2 |
| 20260506164506 | 82 | 217 | 1.0 | 16.0 | 0.00 | 0.00 | 0.00 | 63 | 1018.3 |
| 20260506163004 | 82 | 178 | 5.0 | 16.0 | 0.00 | 0.00 | 0.00 | 65 | 1018.7 |
| 20260506161502 | 81 | 261 | 8.0 | 10.0 | 0.00 | 0.00 | 0.00 | 65 | 1018.7 |
| 20260506160059 | 80 | 224 | 5.0 | 11.0 | 0.00 | 0.00 | 0.00 | 66 | 1018.8 |
| 20260506154619 | 79 | 241 | 5.0 | 12.0 | 0.00 | 0.00 | 0.00 | 69 | 1018.9 |
| 20260506153107 | 79 | 240 | 9.0 | 15.0 | 0.00 | 0.00 | 0.00 | 68 | 1018.9 |
| 20260506151557 | 78 | 250 | 3.0 | 15.0 | 0.00 | 0.00 | 0.00 | 71 | 1018.9 |
| 20260506150049 | 77 | 237 | 11.0 | 16.0 | 0.00 | 0.00 | 0.00 | 71 | 1019.1 |
| 20260506144546 | 77 | 279 | 5.0 | 12.0 | 0.00 | 0.00 | 0.00 | 74 | 1018.5 |
| 20260506143051 | 75 | 206 | 8.0 | 18.0 | 0.00 | 0.00 | 0.00 | 74 | 1018.7 |
| 20260506141538 | 75 | 259 | 4.0 | 11.0 | 0.00 | 0.00 | 0.00 | 76 | 1018.6 |
| 20260506140032 | 74 | 193 | 6.0 | 14.0 | 0.00 | 0.00 | 0.00 | 77 | 1018.8 |
| 20260506134529 | 72 | 228 | 5.0 | 15.0 | 0.00 | 0.00 | 0.00 | 79 | 1018.6 |
| 20260506133026 | 71 | 209 | 7.0 | 12.0 | 0.00 | 0.00 | 0.00 | 80 | 1018.3 |
| 20260506131522 | 70 | 222 | 5.0 | 15.0 | 0.00 | 0.00 | 0.00 | 82 | 1018.1 |
| 20260506130018 | 69 | 221 | 4.0 | 9.0 | 0.00 | 0.00 | 0.00 | 84 | 1018.2 |
| 20260506124514 | 68 | 210 | 3.0 | 10.0 | 0.00 | 0.00 | 0.00 | 86 | 1018.2 |
| 20260506123011 | 66 | 219 | 4.0 | 11.0 | 0.00 | 0.00 | 0.00 | 88 | 1018.2 |
| 20260506121505 | 65 | 193 | 4.0 | 10.0 | 0.00 | 0.00 | 0.00 | 90 | 1017.8 |
| 20260506120002 | 64 | 209 | 3.0 | 8.0 | 0.00 | 0.00 | 0.00 | 92 | 1018.0 |
| 20260506114500 | 62 | 200 | 2.0 | 7.0 | 0.00 | 0.00 | 0.00 | 93 | 1017.7 |
| 20260506113100 | 61 | 197 | 2.0 | 6.0 | 0.00 | 0.00 | 0.00 | 94 | 1017.6 |
| 20260506111600 | 61 | 184 | 1.0 | 4.0 | 0.00 | 0.00 | 0.00 | 95 | 1017.4 |
| 20260506110104 | 60 | 179 | 1.0 | 3.0 | 0.00 | 0.00 | 0.00 | 95 | 1017.3 |
| 20260506104600 | 60 | 180 | 1.0 | 4.0 | 0.00 | 0.00 | 0.00 | 95 | 1017.1 |
| 20260506103058 | 60 | 185 | 1.0 | 4.0 | 0.00 | 0.00 | 0.00 | 95 | 1016.8 |
| 20260506101604 | 60 | 204 | 1.0 | 3.0 | 0.00 | 0.00 | 0.00 | 94 | 1017.0 |
| 20260506100055 | 60 | 207 | 1.0 | 3.0 | 0.00 | 0.00 | 0.00 | 94 | 1017.1 |
| 20260506094616 | 61 | 207 | 1.0 | 3.0 | 0.00 | 0.00 | 0.00 | 93 | 1017.1 |
| 20260506093055 | 61 | 207 | 1.0 | 3.0 | 0.00 | 0.00 | 0.00 | 93 | 1017.1 |
| 20260506091551 | 62 | 205 | 1.0 | 3.0 | 0.00 | 0.00 | 0.00 | 92 | 1017.0 |
| 20260506090050 | 62 | 208 | 1.0 | 4.0 | 0.00 | 0.00 | 0.00 | 92 | 1017.0 |
| 20260506084550 | 62 | 205 | 3.0 | 7.0 | 0.00 | 0.00 | 0.00 | 92 | 1016.9 |
| 20260506083049 | 62 | 192 | 2.0 | 5.0 | 0.00 | 0.00 | 0.00 | 92 | 1016.8 |
| 20260506081550 | 62 | 198 | 2.0 | 6.0 | 0.00 | 0.00 | 0.00 | 91 | 1017.0 |
| 20260506073047 | 62 | 175 | 2.0 | 6.0 | 0.00 | 0.00 | 0.00 | 92 | 1016.7 |
| 20260506071545 | 63 | 174 | 0.0 | 3.0 | 0.00 | 0.00 | 0.00 | 91 | 1016.9 |
| 20260506061539 | 63 | 169 | 2.0 | 6.0 | 0.00 | 0.00 | 0.00 | 92 | 1017.2 |
| 20260506044538 | 62 | 173 | 0.0 | 3.0 | 0.00 | 0.00 | 0.00 | 91 | 1017.9 |
| 20260506043025 | 63 | 175 | 0.0 | 2.0 | 0.00 | 0.00 | 0.00 | 90 | 1017.9 |
| 20260506041523 | 63 | 171 | 0.0 | 2.0 | 0.00 | 0.00 | 0.00 | 89 | 1017.9 |
| 20260506040046 | 64 | 162 | 1.0 | 5.0 | 0.00 | 0.00 | 0.00 | 89 | 1017.8 |
| 20260506034520 | 63 | 161 | 3.0 | 5.0 | 0.00 | 0.00 | 0.00 | 89 | 1018.0 |
| 20260506033119 | 63 | 165 | 1.0 | 3.0 | 0.00 | 0.00 | 0.00 | 87 | 1018.2 |
| 20260506031536 | 64 | 165 | 0.0 | 1.0 | 0.00 | 0.00 | 0.00 | 86 | 1018.2 |
| 20260506030020 | 65 | 156 | 1.0 | 5.0 | 0.00 | 0.00 | 0.00 | 84 | 1018.2 |
| 20260506024521 | 65 | 140 | 3.0 | 7.0 | 0.00 | 0.00 | 0.00 | 83 | 1018.1 |
| 20260506023016 | 66 | 143 | 4.0 | 7.0 | 0.00 | 0.00 | 0.00 | 83 | 1017.9 |
| 20260506021516 | 66 | 156 | 3.0 | 7.0 | 0.00 | 0.00 | 0.00 | 82 | 1017.8 |
| 20260506020017 | 66 | 155 | 3.0 | 7.0 | 0.00 | 0.00 | 0.00 | 82 | 1017.7 |
| 20260506014515 | 66 | 149 | 4.0 | 8.0 | 0.00 | 0.00 | 0.00 | 82 | 1017.5 |
| 20260506013015 | 67 | 139 | 6.0 | 9.0 | 0.00 | 0.00 | 0.00 | 81 | 1017.4 |
| 20260506011515 | 67 | 142 | 5.0 | 9.0 | 0.00 | 0.00 | 0.00 | 80 | 1017.5 |
| 20260506010014 | 68 | 149 | 6.0 | 9.0 | 0.00 | 0.00 | 0.00 | 79 | 1017.5 |
| 20260506004522 | 68 | 146 | 4.0 | 10.0 | 0.00 | 0.00 | 0.00 | 78 | 1017.4 |
| 20260506003015 | 69 | 142 | 5.0 | 10.0 | 0.00 | 0.00 | 0.00 | 77 | 1017.3 |
| 20260506001514 | 69 | 135 | 7.0 | 12.0 | 0.00 | 0.00 | 0.00 | 75 | 1017.0 |
| 20260506000011 | 70 | 132 | 8.0 | 14.0 | 0.00 | 0.00 | 0.00 | 73 | 1016.9 |
| 20260505234511 | 71 | 115 | 8.0 | 12.0 | 0.00 | 0.00 | 0.00 | 72 | 1016.9 |
| 20260505233008 | 72 | 139 | 10.0 | 14.0 | 0.00 | 0.00 | 0.00 | 70 | 1017.3 |
| 20260505231508 | 72 | 153 | 10.0 | 16.0 | 0.00 | 0.00 | 0.00 | 69 | 1017.0 |
| 20260505230006 | 73 | 155 | 8.0 | 15.0 | 0.00 | 0.00 | 0.00 | 69 | 1017.1 |
| 20260505224506 | 73 | 140 | 13.0 | 19.0 | 0.00 | 0.00 | 0.00 | 67 | 1017.0 |
| 20260505223005 | 73 | 133 | 12.0 | 19.0 | 0.00 | 0.00 | 0.00 | 66 | 1016.9 |
| 20260505221506 | 74 | 153 | 13.0 | 19.0 | 0.00 | 0.00 | 0.00 | 66 | 1016.9 |
| 20260505220002 | 74 | 126 | 9.0 | 17.0 | 0.00 | 0.00 | 0.00 | 66 | 1017.0 |
| 20260505214502 | 75 | 111 | 10.0 | 18.0 | 0.00 | 0.00 | 0.00 | 65 | 1017.0 |
| 20260505213000 | 75 | 109 | 12.0 | 18.0 | 0.00 | 0.00 | 0.00 | 66 | 1017.2 |
| 20260505211611 | 75 | 130 | 9.0 | 19.0 | 0.00 | 0.00 | 0.00 | 65 | 1017.1 |
| 20260505204602 | 75 | 138 | 12.0 | 19.0 | 0.00 | 0.00 | 0.00 | 64 | 1017.1 |
| 20260505203058 | 75 | 122 | 13.0 | 18.0 | 0.00 | 0.00 | 0.00 | 64 | 1017.1 |
| 20260505201600 | 76 | 122 | 10.0 | 18.0 | 0.00 | 0.00 | 0.00 | 63 | 1017.3 |
| 20260505200057 | 76 | 147 | 8.0 | 16.0 | 0.00 | 0.00 | 0.00 | 64 | 1017.6 |
| 20260505194608 | 75 | 111 | 13.0 | 21.0 | 0.00 | 0.00 | 0.00 | 64 | 1017.9 |
| 20260505193054 | 76 | 148 | 11.0 | 18.0 | 0.00 | 0.00 | 0.00 | 63 | 1017.9 |
| 20260505191554 | 76 | 137 | 12.0 | 18.0 | 0.00 | 0.00 | 0.00 | 62 | 1018.2 |